Terug naar catalogus

STARLINK-6080

ActiefCommunicatieVLEO
NORAD 56112·PAYLOAD·🇺🇸 United States

Gelanceerd Mar 29, 2023 vanaf Cape Canaveral Space Force Station

Loading…

Volgende Passages (komende 24 uur)

TLE

VersSource: CelesTrak SupGP

Epoch: Sep 14, 2026, 21:26 UTC

1 56112C 23046V   26257.89354167 -.00024077  00000+0 -87247-3 0  2574
2 56112  43.0026 173.4021 0001714 271.4495  81.7113 15.27575323    17

Volg STARLINK-6080 in realtime met AllMySat

Download on the App Store